Location: Hac?musa Deresi
(39.1694°N, 32.2508°E)
Time: 08:50:46
(UTC+00:00)

RESURS DK-1 - Pass Details

Date: 22 April 2026
Orbit: 524 x 530 km, 69.9° (Epoch: 12 May)

Event Time Altitude Azimuth Distance (km) Brightness Sun altitude
Rises 16:56:36 0° 199° (SSW) 2,638 5.8 -4.8°
Reaches altitude 10° 16:58:46 10° 197° (SSW) 1,755 4.9 -5.2°
Maximum altitude 17:02:39 75° 113° (ESE) 546 2.2 -5.9°
Drops below altitude 10° 17:06:35 10° 28° (NNE) 1,771 4.9 -6.6°
Sets 17:08:46 0° 26° (NNE) 2,665 5.8 -7.0°
